Hourly Data Report for May 12, 2003

SHERBROOKE A
QUEBEC

45°26'00.000" N
71°41'00.000" W
241.40 m
7028124
71610
YSC

Download Data

Hourly Data (May 2003)
Hourly Data Report for May 12, 2003
TIME
LST
Temp Definition
°C
Dew Point Definition
°C
Rel Hum Definition
%
Precip. Amount Definition
mm

Wind Dir Definition
10's deg

Wind Spd Definition
km/h
Visibility Definition
km
Stn Press Definition
kPa
Hmdx Definition


Wind Chill Definition


Weather Definition


00:00 8.1 6.6 90   13 19 15.0 97.31     Rain
01:00 7.6 6.3 91   14 13 15.0 97.26     Rain
02:00 7.4 6.4 93   13 9 15.0 97.21     Rain
03:00 7.3 6.2 93   9 9 15.0 97.17     Rain
04:00 7.2 6.1 93   15 9 15.0 97.11     Rain
05:00 7.2 6.2 93   14 4 15.0 97.09     Rain
06:00 7.3 6.5 95   7 6 15.0 97.08     Rain
07:00 7.6 6.3 91   12 7 24.1 97.06     Mostly Cloudy
08:00 8.8 7.5 92   7 9 24.1 96.99     Mostly Cloudy
09:00 10.1 7.5 84   12 7 24.1 97.00     Mostly Cloudy
10:00 10.0 7.5 84   10 7 24.1 96.96     Mostly Cloudy
11:00 12.0 8.2 78   14 9 24.1 96.93     Cloudy
12:00 11.1 8.7 85   15 15 24.1 96.93     Rain Showers
13:00 9.6 7.9 89   12 20 19.3 96.90     Rain Showers
14:00 9.9 8.4 90   13 13 19.3 96.87     Rain Showers
15:00 10.0 8.5 90   10 11 24.1 96.80     Rain Showers
16:00 10.2 8.3 88   8 9 24.1 96.77     Mostly Cloudy
17:00 10.3 8.5 89   7 6 15.0 96.77      
18:00 10.1 8.4 89   7 6 15.0 96.81      
19:00 9.6 8.2 91   7 7 15.0 96.84      
20:00 8.9 7.5 91   8 6 11.3 96.87     Rain
21:00 8.1 7.0 93   10 11 15.0 96.89     Rain
22:00 7.9 7.3 96   20 6 15.0 96.87     Rain
23:00 7.8 7.3 97   24 4 5.6 96.86     Rain

Notes on Data Quality.

Legend

  • E = Estimated
  • M = Missing
  • NA = Not Available*
  • [empty] = Indicates an unobserved value
Date modified: